Flag for Belgium Weather past 2 weeks in Brussels, Belgium

Now
70 °F

Mild.


Feels Like: 74 °F
Forecast: 62 / 76 °F
Wind: 2 mph from Southeast

Location: Uccle

Current Time: Sep 17, 2014 at 11:38:31 AM

Latest Report: Sep 17, 2014 at 11:00 AM


Visibility: N/A

Pressure: 29.89 "Hg

Humidity: 70%

Dew point: 60 °F

Location of BrusselsLocation

Historic Weather in Brussels — Graph

°F

Brussels temperature yesterday

Maximum temperature yesterday: 74 °F (at 6:00 PM)
Minimum temperature yesterday: 55 °F (at 6:00 AM)
Average temperature yesterday: 64 °F

Past Weeks' High & Low Weather Summary

 TemperatureHumidityPressure
High75 °F (Sep 5, 3:00 PM)95% (Sep 3, 8:00 AM)30.28 "Hg (Sep 3, 8:00 AM)
Low51 °F (Sep 12, 8:00 AM)48% (Sep 3, 4:00 PM)29.89 "Hg (Sep 17, 10:00 AM)
Average62 °F77%30.09 "Hg
* Reported Sep 2 10:00 AM — Sep 17 10:00 AM, Brussels, Weather by CustomWeather, © 2014

Note: Actual official high and low records may vary slightly from our data, if they occured in-between our weather recording intervals... More about our weather records

Advertising

Brussels weather history for previous 24 hours

 ConditionsComfort  
Time TempWeatherWind HumidityBarometerVisibility
10:00 AM
Sep 17
66 °FMild.2 mph78%29.89 "HgN/A
9:00 AM61 °FCool.2 mph92%29.89 "HgN/A
8:00 AM58 °FCool.2 mph91%29.89 "HgN/A
7:00 AM58 °FCool.2 mph92%29.90 "HgN/A
6:00 AM59 °FCool.2 mph91%29.90 "HgN/A
5:00 AM59 °FCool.2 mph91%29.91 "HgN/A
4:00 AM59 °FCool.2 mph91%29.92 "HgN/A
3:00 AM58 °FCool.2 mph90%29.92 "HgN/A
2:00 AM59 °FCool.2 mph89%29.93 "HgN/A
1:00 AM59 °FCool.2 mph87%29.93 "HgN/A
12:00 AM60 °FCool.3 mph85%29.93 "HgN/A
11:00 PM
Sep 16
61 °FCool.2 mph85%29.94 "HgN/A
10:00 PM62 °FCool.2 mph81%29.94 "HgN/A
9:00 PM64 °FMild.2 mph77%29.94 "HgN/A
8:00 PM66 °FMild.2 mph67%29.93 "HgN/A
7:00 PM70 °FMild.2 mph59%29.93 "HgN/A
6:00 PM74 °FMild.1 mph50%29.93 "HgN/A
5:00 PM73 °FMild.2 mph54%29.93 "HgN/A
4:00 PM72 °FMild.2 mph57%29.94 "HgN/A
3:00 PM73 °FMild.2 mph55%29.95 "HgN/A
2:00 PM74 °FMild.2 mph57%29.96 "HgN/A
1:00 PM72 °FMild.3 mph61%29.97 "HgN/A
12:00 PM71 °FMild.2 mph65%29.98 "HgN/A
11:00 AM68 °FMild.1 mph75%29.99 "HgN/A
Weather by CustomWeather, © 2014

See weather overviewHow to use our weather pages